| time (UTC) | temp C | wind direction | speed KPH | gust KPH | rain 1hr cm | rain 24hr cm | rain mn cm | humidity % | barometer mb |
| 20260503034018 | 26 | 0 | 0.0 | 0.0 | 0.00 | 0.00 | 0.00 | 73 | 1016.0 |
| 20260503033518 | 26 | 0 | 0.0 | 0.0 | 0.00 | 0.00 | 0.00 | 73 | 1016.0 |
| 20260503033035 | 26 | 0 | 0.0 | 0.0 | 0.00 | 0.00 | 0.00 | 73 | 1015.9 |
| 20260503032518 | 27 | 0 | 0.0 | 0.0 | 0.00 | 0.00 | 0.00 | 73 | 1015.7 |
| 20260503032018 | 27 | 0 | 0.0 | 0.0 | 0.00 | 0.00 | 0.00 | 73 | 1015.9 |
| 20260503031532 | 27 | 0 | 0.0 | 8.0 | 0.00 | 0.00 | 0.00 | 72 | 1015.9 |
| 20260503031019 | 27 | 0 | 0.0 | 8.0 | 0.00 | 0.00 | 0.00 | 72 | 1015.9 |
| 20260503030518 | 27 | 0 | 0.0 | 8.0 | 0.00 | 0.00 | 0.00 | 72 | 1015.7 |
| 20260503030037 | 27 | 0 | 0.0 | 6.4 | 0.00 | 0.00 | 0.00 | 72 | 1015.8 |
| 20260503025518 | 27 | 0 | 0.0 | 6.4 | 0.00 | 0.00 | 0.00 | 72 | 1015.8 |
| 20260503025018 | 27 | 0 | 0.0 | 6.4 | 0.00 | 0.00 | 0.00 | 71 | 1015.7 |
| 20260503024537 | 27 | 0 | 0.0 | 8.0 | 0.00 | 0.00 | 0.00 | 71 | 1015.7 |
| 20260503024018 | 27 | 0 | 0.0 | 8.0 | 0.00 | 0.00 | 0.00 | 70 | 1015.8 |
| 20260503023518 | 27 | 0 | 0.0 | 8.0 | 0.00 | 0.00 | 0.00 | 70 | 1015.7 |
| 20260503023037 | 27 | 0 | 0.0 | 8.0 | 0.00 | 0.00 | 0.00 | 69 | 1015.7 |
| 20260503022518 | 27 | 0 | 0.0 | 8.0 | 0.00 | 0.00 | 0.00 | 69 | 1015.7 |
| 20260503022017 | 27 | 0 | 0.0 | 0.0 | 0.00 | 0.00 | 0.00 | 68 | 1015.5 |
| 20260503021535 | 27 | 0 | 0.0 | 8.0 | 0.00 | 0.00 | 0.00 | 68 | 1015.6 |
| 20260503021019 | 27 | 0 | 0.0 | 8.0 | 0.00 | 0.00 | 0.00 | 67 | 1015.6 |
| 20260503020519 | 27 | 0 | 0.0 | 6.4 | 0.00 | 0.00 | 0.00 | 66 | 1015.5 |
| 20260503020035 | 27 | 0 | 0.0 | 9.7 | 0.00 | 0.00 | 0.00 | 66 | 1015.5 |
| 20260503015521 | 27 | 0 | 0.0 | 9.7 | 0.00 | 0.00 | 0.00 | 65 | 1015.6 |
| 20260503015016 | 28 | 0 | 1.6 | 9.7 | 0.00 | 0.00 | 0.00 | 64 | 1015.6 |
| 20260503014534 | 28 | 0 | 0.0 | 6.4 | 0.00 | 0.00 | 0.00 | 64 | 1015.6 |
| 20260503014017 | 28 | 0 | 0.0 | 8.0 | 0.00 | 0.00 | 0.00 | 63 | 1015.6 |
| 20260503013519 | 28 | 0 | 0.0 | 8.0 | 0.00 | 0.00 | 0.00 | 62 | 1015.4 |
| 20260503013040 | 28 | 0 | 0.0 | 11.3 | 0.00 | 0.00 | 0.00 | 62 | 1015.4 |
| 20260503012518 | 28 | 0 | 0.0 | 11.3 | 0.00 | 0.00 | 0.00 | 61 | 1015.3 |
| 20260503012016 | 28 | 287 | 0.0 | 9.7 | 0.00 | 0.00 | 0.00 | 60 | 1015.2 |
| 20260503011536 | 28 | 0 | 0.0 | 9.7 | 0.00 | 0.00 | 0.00 | 59 | 1015.1 |
| 20260503011020 | 28 | 305 | 0.0 | 11.3 | 0.00 | 0.00 | 0.00 | 58 | 1015.0 |
| 20260503010520 | 28 | 271 | 0.0 | 11.3 | 0.00 | 0.00 | 0.00 | 58 | 1014.9 |
| 20260503010035 | 28 | 277 | 0.0 | 14.5 | 0.00 | 0.00 | 0.00 | 57 | 1014.8 |
| 20260503005522 | 28 | 245 | 1.6 | 14.5 | 0.00 | 0.00 | 0.00 | 57 | 1014.8 |
| 20260503005024 | 29 | 0 | 0.0 | 12.9 | 0.00 | 0.00 | 0.00 | 56 | 1014.7 |
| 20260503004537 | 29 | 0 | 0.0 | 12.9 | 0.00 | 0.00 | 0.00 | 55 | 1014.6 |
| 20260503004023 | 29 | 0 | 1.6 | 12.9 | 0.00 | 0.00 | 0.00 | 55 | 1014.6 |
| 20260503003519 | 29 | 258 | 1.6 | 12.9 | 0.00 | 0.00 | 0.00 | 55 | 1014.5 |
| 20260503003044 | 29 | 0 | 0.0 | 11.3 | 0.00 | 0.00 | 0.00 | 55 | 1014.4 |
| 20260503002519 | 29 | 255 | 0.0 | 14.5 | 0.00 | 0.00 | 0.00 | 54 | 1014.3 |
| 20260503002020 | 30 | 0 | 0.0 | 16.1 | 0.00 | 0.00 | 0.00 | 53 | 1014.1 |
| 20260503001545 | 30 | 0 | 1.6 | 16.1 | 0.00 | 0.00 | 0.00 | 53 | 1014.1 |
| 20260503001019 | 30 | 259 | 1.6 | 16.1 | 0.00 | 0.00 | 0.00 | 52 | 1014.1 |
| 20260503000523 | 30 | 287 | 0.0 | 16.1 | 0.00 | 0.00 | 0.00 | 51 | 1013.9 |
| 20260503000041 | 30 | 0 | 3.2 | 16.1 | 0.00 | 0.00 | 0.00 | 49 | 1013.8 |
| 20260502235519 | 31 | 0 | 0.0 | 19.3 | 0.00 | 0.00 | 0.00 | 46 | 1013.7 |
| 20260502235020 | 31 | 0 | 3.2 | 19.3 | 0.00 | 0.00 | 0.00 | 45 | 1013.6 |
| 20260502234548 | 31 | 0 | 3.2 | 17.7 | 0.00 | 0.00 | 0.00 | 44 | 1013.5 |
| 20260502234020 | 31 | 0 | 1.6 | 12.9 | 0.00 | 0.00 | 0.00 | 43 | 1013.4 |
| 20260502233520 | 31 | 0 | 1.6 | 14.5 | 0.00 | 0.00 | 0.00 | 42 | 1013.3 |
| 20260502233040 | 31 | 0 | 1.6 | 16.1 | 0.00 | 0.00 | 0.00 | 42 | 1013.2 |
| 20260502232524 | 31 | 0 | 0.0 | 16.1 | 0.00 | 0.00 | 0.00 | 41 | 1013.1 |
| 20260502232018 | 31 | 288 | 1.6 | 16.1 | 0.00 | 0.00 | 0.00 | 41 | 1013.1 |
| 20260502231535 | 32 | 271 | 0.0 | 14.5 | 0.00 | 0.00 | 0.00 | 40 | 1012.9 |
| 20260502231021 | 32 | 0 | 0.0 | 9.7 | 0.00 | 0.00 | 0.00 | 39 | 1012.8 |
| 20260502230519 | 32 | 0 | 0.0 | 9.7 | 0.00 | 0.00 | 0.00 | 40 | 1012.7 |
| 20260502230037 | 32 | 0 | 1.6 | 14.5 | 0.00 | 0.00 | 0.00 | 39 | 1012.7 |
| 20260502225520 | 32 | 0 | 3.2 | 19.3 | 0.00 | 0.00 | 0.00 | 38 | 1012.5 |
| 20260502225019 | 33 | 0 | 1.6 | 19.3 | 0.00 | 0.00 | 0.00 | 38 | 1012.6 |
| 20260502224542 | 33 | 0 | 1.6 | 19.3 | 0.00 | 0.00 | 0.00 | 37 | 1012.5 |
| 20260502224020 | 33 | 0 | 0.0 | 9.7 | 0.00 | 0.00 | 0.00 | 36 | 1012.5 |
| 20260502223521 | 33 | 0 | 0.0 | 8.0 | 0.00 | 0.00 | 0.00 | 38 | 1012.4 |
| 20260502223042 | 33 | 0 | 0.0 | 11.3 | 0.00 | 0.00 | 0.00 | 38 | 1012.4 |
| 20260502222521 | 33 | 0 | 0.0 | 14.5 | 0.00 | 0.00 | 0.00 | 40 | 1012.4 |
| 20260502222019 | 33 | 278 | 1.6 | 14.5 | 0.00 | 0.00 | 0.00 | 39 | 1012.4 |
| 20260502221537 | 33 | 280 | 1.6 | 12.9 | 0.00 | 0.00 | 0.00 | 39 | 1012.4 |
| 20260502221019 | 33 | 0 | 1.6 | 12.9 | 0.00 | 0.00 | 0.00 | 39 | 1012.4 |
| 20260502220518 | 33 | 0 | 0.0 | 14.5 | 0.00 | 0.00 | 0.00 | 39 | 1012.4 |
| 20260502220035 | 33 | 185 | 3.2 | 17.7 | 0.00 | 0.00 | 0.00 | 38 | 1012.4 |
| 20260502215519 | 33 | 286 | 1.6 | 17.7 | 0.00 | 0.00 | 0.00 | 38 | 1012.4 |
| 20260502215020 | 33 | 0 | 1.6 | 20.9 | 0.00 | 0.00 | 0.00 | 37 | 1012.3 |
| 20260502214544 | 33 | 0 | 3.2 | 20.9 | 0.00 | 0.00 | 0.00 | 37 | 1012.3 |
| 20260502214020 | 33 | 186 | 4.8 | 20.9 | 0.00 | 0.00 | 0.00 | 36 | 1012.3 |
| 20260502213518 | 34 | 0 | 1.6 | 16.1 | 0.00 | 0.00 | 0.00 | 36 | 1012.3 |
| 20260502213036 | 34 | 0 | 3.2 | 16.1 | 0.00 | 0.00 | 0.00 | 36 | 1012.2 |
| 20260502212518 | 34 | 289 | 0.0 | 24.1 | 0.00 | 0.00 | 0.00 | 34 | 1012.3 |
| 20260502212018 | 34 | 0 | 0.0 | 24.1 | 0.00 | 0.00 | 0.00 | 35 | 1012.1 |
| 20260502211536 | 34 | 280 | 8.0 | 22.5 | 0.00 | 0.00 | 0.00 | 35 | 1012.2 |
| 20260502211018 | 34 | 285 | 4.8 | 22.5 | 0.00 | 0.00 | 0.00 | 34 | 1012.1 |
| 20260502210519 | 35 | 302 | 4.8 | 17.7 | 0.00 | 0.00 | 0.00 | 33 | 1012.0 |
| 20260502210037 | 35 | 0 | 0.0 | 17.7 | 0.00 | 0.00 | 0.00 | 34 | 1012.0 |
| 20260502205518 | 35 | 277 | 6.4 | 17.7 | 0.00 | 0.00 | 0.00 | 33 | 1012.2 |
| 20260502205018 | 35 | 271 | 0.0 | 11.3 | 0.00 | 0.00 | 0.00 | 32 | 1012.1 |
| 20260502204530 | 35 | 236 | 1.6 | 11.3 | 0.00 | 0.00 | 0.00 | 33 | 1012.0 |
| 20260502204017 | 35 | 0 | 1.6 | 20.9 | 0.00 | 0.00 | 0.00 | 34 | 1012.0 |
| 20260502203521 | 35 | 0 | 0.0 | 20.9 | 0.00 | 0.00 | 0.00 | 34 | 1012.1 |
| 20260502203042 | 35 | 0 | 1.6 | 25.7 | 0.00 | 0.00 | 0.00 | 35 | 1012.1 |
| 20260502202521 | 34 | 0 | 4.8 | 25.7 | 0.00 | 0.00 | 0.00 | 33 | 1012.0 |
| 20260502202017 | 34 | 0 | 1.6 | 16.1 | 0.00 | 0.00 | 0.00 | 33 | 1012.1 |
| 20260502201535 | 34 | 287 | 6.4 | 22.5 | 0.00 | 0.00 | 0.00 | 36 | 1012.2 |
| 20260502201017 | 34 | 0 | 6.4 | 22.5 | 0.00 | 0.00 | 0.00 | 37 | 1012.3 |
| 20260502200521 | 34 | 0 | 6.4 | 17.7 | 0.00 | 0.00 | 0.00 | 36 | 1012.4 |
| 20260502200035 | 35 | 249 | 3.2 | 14.5 | 0.00 | 0.00 | 0.00 | 38 | 1012.3 |
| 20260502195519 | 35 | 273 | 3.2 | 12.9 | 0.00 | 0.00 | 0.00 | 37 | 1012.5 |
| 20260502195018 | 34 | 0 | 3.2 | 14.5 | 0.00 | 0.00 | 0.00 | 39 | 1012.5 |
| 20260502194534 | 34 | 0 | 4.8 | 14.5 | 0.00 | 0.00 | 0.00 | 39 | 1012.5 |
| 20260502194018 | 33 | 0 | 1.6 | 24.1 | 0.00 | 0.00 | 0.00 | 41 | 1012.5 |
| 20260502193518 | 33 | 274 | 8.0 | 24.1 | 0.00 | 0.00 | 0.00 | 41 | 1012.7 |
| 20260502193039 | 34 | 271 | 3.2 | 17.7 | 0.00 | 0.00 | 0.00 | 39 | 1012.8 |
| 20260502192518 | 34 | 263 | 3.2 | 29.0 | 0.00 | 0.00 | 0.00 | 41 | 1012.8 |
| 20260502192017 | 34 | 284 | 4.8 | 29.0 | 0.00 | 0.00 | 0.00 | 41 | 1012.7 |
| 20260502191539 | 34 | 283 | 6.4 | 22.5 | 0.00 | 0.00 | 0.00 | 40 | 1012.8 |
| 20260502191021 | 34 | 308 | 8.0 | 22.5 | 0.00 | 0.00 | 0.00 | 39 | 1012.9 |
| 20260502190518 | 34 | 284 | 4.8 | 22.5 | 0.00 | 0.00 | 0.00 | 38 | 1012.8 |
| 20260502190042 | 35 | 330 | 3.2 | 17.7 | 0.00 | 0.00 | 0.00 | 37 | 1012.8 |
| 20260502185519 | 34 | 0 | 1.6 | 24.1 | 0.00 | 0.00 | 0.00 | 39 | 1012.9 |
| 20260502185018 | 34 | 274 | 4.8 | 24.1 | 0.00 | 0.00 | 0.00 | 40 | 1012.9 |
| 20260502184538 | 33 | 300 | 6.4 | 22.5 | 0.00 | 0.00 | 0.00 | 40 | 1012.9 |
| 20260502184018 | 33 | 203 | 6.4 | 24.1 | 0.00 | 0.00 | 0.00 | 42 | 1013.0 |
| 20260502183517 | 33 | 0 | 0.0 | 24.1 | 0.00 | 0.00 | 0.00 | 45 | 1012.9 |
| 20260502183031 | 33 | 152 | 8.0 | 24.1 | 0.00 | 0.00 | 0.00 | 45 | 1013.0 |
| 20260502182518 | 33 | 0 | 4.8 | 19.3 | 0.00 | 0.00 | 0.00 | 46 | 1013.0 |
| 20260502182019 | 33 | 0 | 0.0 | 19.3 | 0.00 | 0.00 | 0.00 | 48 | 1013.0 |
| 20260502181537 | 33 | 257 | 1.6 | 27.4 | 0.00 | 0.00 | 0.00 | 47 | 1013.2 |
| 20260502181018 | 33 | 0 | 0.0 | 27.4 | 0.00 | 0.00 | 0.00 | 48 | 1013.1 |
| 20260502180518 | 32 | 203 | 4.8 | 16.1 | 0.00 | 0.00 | 0.00 | 48 | 1013.1 |
| 20260502170518 | 32 | 308 | 0.0 | 16.1 | 0.00 | 0.00 | 0.00 | 54 | 1013.4 |
| 20260502164017 | 32 | 0 | 0.0 | 16.1 | 0.00 | 0.00 | 0.00 | 54 | 1013.6 |
| 20260502163518 | 32 | 0 | 0.0 | 24.1 | 0.00 | 0.00 | 0.00 | 54 | 1013.7 |
| 20260502163047 | 31 | 0 | 0.0 | 24.1 | 0.00 | 0.00 | 0.00 | 58 | 1013.7 |
| 20260502162519 | 32 | 0 | 1.6 | 20.9 | 0.00 | 0.00 | 0.00 | 58 | 1013.7 |
| 20260502162018 | 32 | 0 | 3.2 | 19.3 | 0.00 | 0.00 | 0.00 | 57 | 1013.8 |
| 20260502161535 | 32 | 0 | 0.0 | 16.1 | 0.00 | 0.00 | 0.00 | 56 | 1013.8 |
| 20260502161018 | 32 | 0 | 1.6 | 16.1 | 0.00 | 0.00 | 0.00 | 56 | 1013.8 |
| 20260502160520 | 32 | 0 | 0.0 | 14.5 | 0.00 | 0.00 | 0.00 | 60 | 1013.8 |
| 20260502152017 | 32 | 0 | 1.6 | 12.9 | 0.00 | 0.00 | 0.00 | 61 | 1014.2 |
| 20260502151549 | 32 | 196 | 1.6 | 16.1 | 0.00 | 0.00 | 0.00 | 62 | 1014.2 |
| 20260502151020 | 31 | 0 | 0.0 | 17.7 | 0.00 | 0.00 | 0.00 | 62 | 1014.1 |
| 20260502150517 | 31 | 0 | 0.0 | 17.7 | 0.00 | 0.00 | 0.00 | 62 | 1014.2 |
| 20260502130518 | 28 | 0 | 0.0 | 12.9 | 0.00 | 0.00 | 0.00 | 72 | 1013.9 |
| 20260502123517 | 27 | 0 | 0.0 | 8.0 | 0.00 | 0.00 | 0.00 | 73 | 1013.9 |
| 20260502123046 | 27 | 0 | 0.0 | 8.0 | 0.00 | 0.00 | 0.00 | 72 | 1013.8 |
| 20260502122521 | 27 | 0 | 0.0 | 8.0 | 0.00 | 0.00 | 0.00 | 72 | 1013.9 |
| 20260502122017 | 27 | 0 | 0.0 | 0.0 | 0.00 | 0.00 | 0.00 | 71 | 1013.9 |
| 20260502121535 | 26 | 0 | 0.0 | 0.0 | 0.00 | 0.00 | 0.00 | 70 | 1013.9 |
| 20260502121019 | 26 | 0 | 0.0 | 0.0 | 0.00 | 0.00 | 0.00 | 67 | 1014.0 |
| 20260502120520 | 26 | 0 | 0.0 | 0.0 | 0.00 | 0.00 | 0.00 | 63 | 1013.8 |
| 20260502115518 | 25 | 0 | 0.0 | 0.0 | 0.00 | 0.00 | 0.00 | 53 | 1013.9 |
| 20260502115019 | 25 | 0 | 0.0 | 0.0 | 0.00 | 0.00 | 0.00 | 47 | 1013.8 |
| 20260502114533 | 25 | 0 | 0.0 | 1.6 | 0.00 | 0.00 | 0.00 | 44 | 1013.9 |
| 20260502114019 | 25 | 0 | 0.0 | 1.6 | 0.00 | 0.00 | 0.00 | 42 | 1013.9 |
| 20260502113521 | 25 | 0 | 0.0 | 0.0 | 0.00 | 0.00 | 0.00 | 40 | 1013.9 |
| 20260502113030 | 24 | 0 | 0.0 | 1.6 | 0.00 | 0.00 | 0.00 | 38 | 1013.8 |
| 20260502112518 | 24 | 0 | 0.0 | 1.6 | 0.00 | 0.00 | 0.00 | 38 | 1013.9 |
| 20260502112019 | 24 | 0 | 0.0 | 0.0 | 0.00 | 0.00 | 0.00 | 39 | 1013.9 |
| 20260502111539 | 24 | 0 | 0.0 | 0.0 | 0.00 | 0.00 | 0.00 | 38 | 1013.9 |
| 20260502111019 | 24 | 0 | 0.0 | 0.0 | 0.00 | 0.00 | 0.00 | 37 | 1014.0 |
| 20260502110519 | 24 | 0 | 0.0 | 0.0 | 0.00 | 0.00 | 0.00 | 37 | 1014.0 |
| 20260502110036 | 24 | 0 | 0.0 | 0.0 | 0.00 | 0.00 | 0.00 | 36 | 1014.0 |
| 20260502105522 | 23 | 0 | 0.0 | 0.0 | 0.00 | 0.00 | 0.00 | 35 | 1013.9 |
| 20260502105020 | 23 | 0 | 0.0 | 0.0 | 0.00 | 0.00 | 0.00 | 36 | 1013.8 |
| 20260502104537 | 23 | 0 | 0.0 | 0.0 | 0.00 | 0.00 | 0.00 | 36 | 1013.8 |
| 20260502104019 | 23 | 0 | 0.0 | 0.0 | 0.00 | 0.00 | 0.00 | 36 | 1013.8 |
| 20260502103518 | 23 | 0 | 0.0 | 0.0 | 0.00 | 0.00 | 0.00 | 36 | 1013.8 |
| 20260502103030 | 23 | 0 | 0.0 | 0.0 | 0.00 | 0.00 | 0.00 | 37 | 1013.8 |
| 20260502102520 | 23 | 0 | 0.0 | 0.0 | 0.00 | 0.00 | 0.00 | 35 | 1013.7 |
| 20260502102018 | 23 | 0 | 0.0 | 0.0 | 0.00 | 0.00 | 0.00 | 37 | 1013.7 |
| 20260502101532 | 23 | 0 | 0.0 | 0.0 | 0.00 | 0.00 | 0.00 | 37 | 1013.8 |
| 20260502101019 | 23 | 0 | 0.0 | 0.0 | 0.00 | 0.00 | 0.00 | 39 | 1013.9 |
| 20260502100519 | 23 | 0 | 0.0 | 0.0 | 0.00 | 0.00 | 0.00 | 39 | 1013.8 |
| 20260502091531 | 23 | 0 | 0.0 | 0.0 | 0.00 | 0.00 | 0.00 | 44 | 1013.7 |
| 20260502091017 | 23 | 0 | 0.0 | 0.0 | 0.00 | 0.00 | 0.00 | 43 | 1013.6 |
| 20260502090517 | 23 | 0 | 0.0 | 0.0 | 0.00 | 0.00 | 0.00 | 44 | 1013.6 |
| 20260502071019 | 23 | 0 | 0.0 | 0.0 | 0.00 | 0.00 | 0.00 | 46 | 1013.5 |
| 20260502070516 | 23 | 0 | 0.0 | 0.0 | 0.00 | 0.00 | 0.00 | 46 | 1013.6 |
| 20260502070039 | 23 | 0 | 0.0 | 0.0 | 0.00 | 0.00 | 0.00 | 47 | 1013.5 |
| 20260502065519 | 23 | 0 | 0.0 | 0.0 | 0.00 | 0.00 | 0.00 | 45 | 1013.6 |
| 20260502065017 | 23 | 0 | 0.0 | 0.0 | 0.00 | 0.00 | 0.00 | 48 | 1013.6 |
| 20260502064534 | 23 | 0 | 0.0 | 0.0 | 0.00 | 0.00 | 0.00 | 47 | 1013.6 |
| 20260502064025 | 23 | 0 | 0.0 | 0.0 | 0.00 | 0.00 | 0.00 | 50 | 1013.7 |
| 20260502063518 | 23 | 0 | 0.0 | 0.0 | 0.00 | 0.00 | 0.00 | 50 | 1013.6 |
| 20260502063033 | 23 | 0 | 0.0 | 0.0 | 0.00 | 0.00 | 0.00 | 50 | 1013.6 |
| 20260502062518 | 23 | 0 | 0.0 | 0.0 | 0.00 | 0.00 | 0.00 | 51 | 1013.7 |
| 20260502062017 | 23 | 0 | 0.0 | 0.0 | 0.00 | 0.00 | 0.00 | 52 | 1013.8 |
| 20260502061540 | 23 | 0 | 0.0 | 0.0 | 0.00 | 0.00 | 0.00 | 53 | 1013.8 |
| 20260502061017 | 23 | 0 | 0.0 | 0.0 | 0.00 | 0.00 | 0.00 | 54 | 1013.9 |
| 20260502060515 | 23 | 0 | 0.0 | 0.0 | 0.00 | 0.00 | 0.00 | 53 | 1013.7 |
| 20260502060035 | 23 | 0 | 0.0 | 0.0 | 0.00 | 0.00 | 0.00 | 56 | 1013.6 |
| 20260502055519 | 23 | 0 | 0.0 | 0.0 | 0.00 | 0.00 | 0.00 | 55 | 1013.7 |
| 20260502055015 | 23 | 0 | 0.0 | 0.0 | 0.00 | 0.00 | 0.00 | 57 | 1013.7 |
| 20260502054536 | 24 | 0 | 0.0 | 0.0 | 0.00 | 0.00 | 0.00 | 58 | 1013.8 |
| 20260502054021 | 24 | 0 | 0.0 | 0.0 | 0.00 | 0.00 | 0.00 | 58 | 1013.7 |
| 20260502053515 | 24 | 0 | 0.0 | 0.0 | 0.00 | 0.00 | 0.00 | 59 | 1013.7 |
| 20260502053037 | 24 | 0 | 0.0 | 0.0 | 0.00 | 0.00 | 0.00 | 58 | 1013.7 |
| 20260502052518 | 24 | 0 | 0.0 | 0.0 | 0.00 | 0.00 | 0.00 | 60 | 1013.9 |
| 20260502052018 | 24 | 0 | 0.0 | 0.0 | 0.00 | 0.00 | 0.00 | 60 | 1013.9 |
| 20260502051533 | 24 | 0 | 0.0 | 0.0 | 0.00 | 0.00 | 0.00 | 61 | 1014.0 |
| 20260502051018 | 24 | 0 | 0.0 | 0.0 | 0.00 | 0.00 | 0.00 | 63 | 1014.0 |
| 20260502050525 | 24 | 0 | 0.0 | 0.0 | 0.00 | 0.00 | 0.00 | 63 | 1013.9 |
| 20260502050036 | 25 | 0 | 0.0 | 0.0 | 0.00 | 0.00 | 0.00 | 62 | 1014.1 |
| 20260502045519 | 25 | 0 | 0.0 | 0.0 | 0.00 | 0.00 | 0.00 | 62 | 1014.1 |
| 20260502045017 | 25 | 0 | 0.0 | 0.0 | 0.00 | 0.00 | 0.00 | 63 | 1014.0 |
| 20260502044535 | 25 | 0 | 0.0 | 0.0 | 0.00 | 0.00 | 0.00 | 64 | 1014.2 |
| 20260502044018 | 25 | 0 | 0.0 | 0.0 | 0.00 | 0.00 | 0.00 | 65 | 1014.1 |
| 20260502043515 | 25 | 0 | 0.0 | 0.0 | 0.00 | 0.00 | 0.00 | 66 | 1014.2 |
| 20260502043036 | 25 | 0 | 0.0 | 0.0 | 0.00 | 0.00 | 0.00 | 67 | 1014.3 |
| 20260502042518 | 25 | 0 | 0.0 | 0.0 | 0.00 | 0.00 | 0.00 | 68 | 1014.3 |
| 20260502042018 | 25 | 0 | 0.0 | 0.0 | 0.00 | 0.00 | 0.00 | 69 | 1014.3 |
| 20260502041536 | 25 | 0 | 0.0 | 0.0 | 0.00 | 0.00 | 0.00 | 69 | 1014.5 |
| 20260502041015 | 25 | 0 | 0.0 | 0.0 | 0.00 | 0.00 | 0.00 | 70 | 1014.5 |
| 20260502040520 | 25 | 0 | 0.0 | 0.0 | 0.00 | 0.00 | 0.00 | 70 | 1014.7 |
| 20260502040037 | 25 | 0 | 0.0 | 0.0 | 0.00 | 0.00 | 0.00 | 71 | 1014.7 |
| 20260502035518 | 25 | 0 | 0.0 | 0.0 | 0.00 | 0.00 | 0.00 | 71 | 1014.7 |
| 20260502035021 | 25 | 0 | 0.0 | 0.0 | 0.00 | 0.00 | 0.00 | 71 | 1014.7 |
| 20260502034530 | 25 | 0 | 0.0 | 0.0 | 0.00 | 0.00 | 0.00 | 71 | 1014.6 |